Year,Month,Day,Hour,Minute,Value (Times are PST for temperature in C)
2009,06,27,00,00,11.60
2009,06,27,00,01,11.60
2009,06,27,00,02,11.60
2009,06,27,00,03,11.60
2009,06,27,00,04,11.60
2009,06,27,00,05,11.50
2009,06,27,00,06,11.40
2009,06,27,00,07,11.40
2009,06,27,00,08,11.40
2009,06,27,00,09,11.40
2009,06,27,00,10,11.40
2009,06,27,00,11,11.40
2009,06,27,00,12,11.40
2009,06,27,00,13,11.40
2009,06,27,00,14,11.40
2009,06,27,00,15,11.40
2009,06,27,00,16,11.40
2009,06,27,00,17,11.40
2009,06,27,00,18,11.40
2009,06,27,00,19,11.30
2009,06,27,00,20,11.30
2009,06,27,00,21,11.30
2009,06,27,00,22,11.30
2009,06,27,00,23,11.30
2009,06,27,00,24,11.30
2009,06,27,00,25,11.30
2009,06,27,00,26,11.30
2009,06,27,00,27,11.40
2009,06,27,00,28,11.40
2009,06,27,00,29,11.40
2009,06,27,00,30,11.40
2009,06,27,00,31,11.30
2009,06,27,00,32,11.30
2009,06,27,00,33,11.30
2009,06,27,00,34,11.30
2009,06,27,00,35,11.30
2009,06,27,00,36,11.20
2009,06,27,00,37,11.20
2009,06,27,00,38,11.20
2009,06,27,00,39,11.20
2009,06,27,00,40,11.20
2009,06,27,00,41,11.20
2009,06,27,00,42,11.20
2009,06,27,00,43,11.20
2009,06,27,00,44,11.20
2009,06,27,00,45,11.20
2009,06,27,00,46,11.20
2009,06,27,00,47,11.20
2009,06,27,00,48,11.10
2009,06,27,00,49,11.10
2009,06,27,00,50,11.10
2009,06,27,00,51,11.10
2009,06,27,00,52,11.10
2009,06,27,00,53,11.10
2009,06,27,00,54,11.10
2009,06,27,00,55,11.10
2009,06,27,00,56,11.10
2009,06,27,00,57,11.10
2009,06,27,00,58,10.90
2009,06,27,00,59,10.90
2009,06,27,01,00,10.90
2009,06,27,01,01,10.90
2009,06,27,01,02,10.90
2009,06,27,01,03,10.90
2009,06,27,01,04,10.90
2009,06,27,01,05,10.90
2009,06,27,01,06,10.90
2009,06,27,01,07,10.90
2009,06,27,01,08,10.90
2009,06,27,01,09,10.90
2009,06,27,01,10,10.90
2009,06,27,01,11,10.90
2009,06,27,01,12,10.80
2009,06,27,01,13,10.80
2009,06,27,01,14,10.80
2009,06,27,01,15,10.70
2009,06,27,01,16,10.70
2009,06,27,01,17,10.70
2009,06,27,01,18,10.70
2009,06,27,01,19,10.60
2009,06,27,01,20,10.60
2009,06,27,01,21,10.60
2009,06,27,01,22,10.60
2009,06,27,01,23,10.60
2009,06,27,01,24,10.60
2009,06,27,01,25,10.60
2009,06,27,01,26,10.40
2009,06,27,01,27,10.40
2009,06,27,01,28,10.40
2009,06,27,01,29,10.40
2009,06,27,01,30,10.40
2009,06,27,01,31,10.40
2009,06,27,01,32,10.40
2009,06,27,01,33,10.40
2009,06,27,01,34,10.40
2009,06,27,01,35,10.40
2009,06,27,01,36,10.40
2009,06,27,01,37,10.40
2009,06,27,01,38,10.40
2009,06,27,01,39,10.40
2009,06,27,01,40,10.40
2009,06,27,01,41,10.40
2009,06,27,01,42,10.40
2009,06,27,01,43,10.40
2009,06,27,01,44,10.40
2009,06,27,01,45,10.40
2009,06,27,01,46,10.30
2009,06,27,01,47,10.30
2009,06,27,01,48,10.30
2009,06,27,01,49,10.30
2009,06,27,01,50,10.30
2009,06,27,01,51,10.30
2009,06,27,01,52,10.30
2009,06,27,01,53,10.30
2009,06,27,01,54,10.30
2009,06,27,01,55,10.40
2009,06,27,01,56,10.40
2009,06,27,01,57,10.40
2009,06,27,01,58,10.40
2009,06,27,01,59,10.40
2009,06,27,02,00,10.40
2009,06,27,02,01,10.40
2009,06,27,02,02,10.40
2009,06,27,02,03,10.30
2009,06,27,02,04,10.30
2009,06,27,02,05,10.30
2009,06,27,02,06,10.30
2009,06,27,02,07,10.30
2009,06,27,02,08,10.20
2009,06,27,02,09,10.20
2009,06,27,02,10,10.20
2009,06,27,02,11,10.20
2009,06,27,02,12,10.20
2009,06,27,02,13,10.10
2009,06,27,02,14,10.10
2009,06,27,02,15,10.10
2009,06,27,02,16,10.10
2009,06,27,02,17,10.10
2009,06,27,02,18,10.10
2009,06,27,02,19,10.00
2009,06,27,02,20,9.90
2009,06,27,02,21,9.90
2009,06,27,02,22,9.90
2009,06,27,02,23,9.90
2009,06,27,02,24,9.90
2009,06,27,02,25,9.90
2009,06,27,02,26,9.90
2009,06,27,02,27,9.90
2009,06,27,02,28,9.90
2009,06,27,02,29,9.90
2009,06,27,02,30,9.90
2009,06,27,02,31,9.90
2009,06,27,02,32,9.90
2009,06,27,02,33,9.90
2009,06,27,02,34,9.90
2009,06,27,02,35,9.90
2009,06,27,02,36,9.90
2009,06,27,02,37,9.90
2009,06,27,02,38,9.90
2009,06,27,02,39,9.90
2009,06,27,02,40,9.90
2009,06,27,02,41,9.90
2009,06,27,02,42,9.90
2009,06,27,02,43,9.80
2009,06,27,02,44,9.80
2009,06,27,02,45,9.80
2009,06,27,02,46,9.80
2009,06,27,02,47,9.80
2009,06,27,02,48,9.70
2009,06,27,02,49,9.70
2009,06,27,02,50,9.70
2009,06,27,02,51,9.70
2009,06,27,02,52,9.70
2009,06,27,02,53,9.70
2009,06,27,02,54,9.70
2009,06,27,02,55,9.70
2009,06,27,02,56,9.60
2009,06,27,02,57,9.60
2009,06,27,02,58,9.60
2009,06,27,02,59,9.60
2009,06,27,03,00,9.60
2009,06,27,03,01,9.50
2009,06,27,03,02,9.50
2009,06,27,03,03,9.50
2009,06,27,03,04,9.50
2009,06,27,03,05,9.50
2009,06,27,03,06,9.50
2009,06,27,03,07,9.50
2009,06,27,03,08,9.40
2009,06,27,03,09,9.40
2009,06,27,03,10,9.40
2009,06,27,03,11,9.40
2009,06,27,03,12,9.40
2009,06,27,03,13,9.40
2009,06,27,03,14,9.40
2009,06,27,03,15,9.50
2009,06,27,03,16,9.50
2009,06,27,03,17,9.50
2009,06,27,03,18,9.50
2009,06,27,03,19,9.60
2009,06,27,03,20,9.60
2009,06,27,03,21,9.60
2009,06,27,03,22,9.70
2009,06,27,03,23,9.70
2009,06,27,03,24,9.70
2009,06,27,03,25,9.70
2009,06,27,03,26,9.70
2009,06,27,03,27,9.70
2009,06,27,03,28,9.70
2009,06,27,03,29,9.70
2009,06,27,03,30,9.70
2009,06,27,03,31,9.60
2009,06,27,03,32,9.60
2009,06,27,03,33,9.60
2009,06,27,03,34,9.60
2009,06,27,03,35,9.50
2009,06,27,03,36,9.50
2009,06,27,03,37,9.50
2009,06,27,03,38,9.40
2009,06,27,03,39,9.30
2009,06,27,03,40,9.30
2009,06,27,03,41,9.20
2009,06,27,03,42,9.20
2009,06,27,03,43,9.10
2009,06,27,03,44,9.10
2009,06,27,03,45,9.10
2009,06,27,03,46,9.00
2009,06,27,03,47,9.00
2009,06,27,03,48,9.00
2009,06,27,03,49,8.90
2009,06,27,03,50,8.90
2009,06,27,03,51,8.90
2009,06,27,03,52,8.90
2009,06,27,03,53,9.00
2009,06,27,03,54,9.00
2009,06,27,03,55,9.00
2009,06,27,03,56,9.00
2009,06,27,03,57,9.10
2009,06,27,03,58,9.10
2009,06,27,03,59,9.10
2009,06,27,04,00,9.10
2009,06,27,04,01,9.10
2009,06,27,04,02,9.10
2009,06,27,04,03,9.00
2009,06,27,04,04,9.00
2009,06,27,04,05,9.00
2009,06,27,04,06,8.90
2009,06,27,04,07,8.90
2009,06,27,04,08,8.90
2009,06,27,04,09,8.80
2009,06,27,04,10,8.80
2009,06,27,04,11,8.70
2009,06,27,04,12,8.70
2009,06,27,04,13,8.70
2009,06,27,04,14,8.70
2009,06,27,04,15,8.60
2009,06,27,04,16,8.60
2009,06,27,04,17,8.50
2009,06,27,04,18,8.50
2009,06,27,04,19,8.50
2009,06,27,04,20,8.40
2009,06,27,04,21,8.40
2009,06,27,04,22,8.40
2009,06,27,04,23,8.30
2009,06,27,04,24,8.30
2009,06,27,04,25,8.30
2009,06,27,04,26,8.20
2009,06,27,04,27,8.20
2009,06,27,04,28,8.20
2009,06,27,04,29,8.20
2009,06,27,04,30,8.20
2009,06,27,04,31,8.20
2009,06,27,04,32,8.10
2009,06,27,04,33,8.10
2009,06,27,04,34,8.10
2009,06,27,04,35,8.00
2009,06,27,04,36,8.00
2009,06,27,04,37,8.00
2009,06,27,04,38,8.00
2009,06,27,04,39,8.00
2009,06,27,04,40,7.90
2009,06,27,04,41,7.90
2009,06,27,04,42,7.90
2009,06,27,04,43,7.90
2009,06,27,04,44,7.90
2009,06,27,04,45,7.90
2009,06,27,04,46,7.90
2009,06,27,04,47,7.90
2009,06,27,04,48,7.90
2009,06,27,04,49,7.90
2009,06,27,04,50,7.90
2009,06,27,04,51,7.90
2009,06,27,04,52,7.90
2009,06,27,04,53,7.90
2009,06,27,04,54,7.90
2009,06,27,04,55,7.90
2009,06,27,04,56,7.90
2009,06,27,04,57,7.90
2009,06,27,04,58,7.90
2009,06,27,04,59,7.90
2009,06,27,05,00,7.90
2009,06,27,05,01,7.90
2009,06,27,05,02,7.90
2009,06,27,05,03,7.90
2009,06,27,05,04,7.90
2009,06,27,05,05,7.90
2009,06,27,05,06,7.90
2009,06,27,05,07,7.80
2009,06,27,05,08,7.80
2009,06,27,05,09,7.80
2009,06,27,05,10,7.80
2009,06,27,05,11,7.80
2009,06,27,05,12,7.80
2009,06,27,05,13,7.80
2009,06,27,05,14,7.80
2009,06,27,05,15,7.80
2009,06,27,05,16,7.70
2009,06,27,05,17,7.70
2009,06,27,05,18,7.70
2009,06,27,05,19,7.60
2009,06,27,05,20,7.60
2009,06,27,05,21,7.60
2009,06,27,05,22,7.50
2009,06,27,05,23,7.50
2009,06,27,05,24,7.50
2009,06,27,05,25,7.40
2009,06,27,05,26,7.40
2009,06,27,05,27,7.40
2009,06,27,05,28,7.40
2009,06,27,05,29,7.30
2009,06,27,05,30,7.30
2009,06,27,05,31,7.30
2009,06,27,05,32,7.30
2009,06,27,05,33,7.30
2009,06,27,05,34,7.30
2009,06,27,05,35,7.30
2009,06,27,05,36,7.30
2009,06,27,05,37,7.30
2009,06,27,05,38,7.30
2009,06,27,05,39,7.30
2009,06,27,05,40,7.30
2009,06,27,05,41,7.30
2009,06,27,05,42,7.30
2009,06,27,05,43,7.30
2009,06,27,05,44,7.30
2009,06,27,05,45,7.30
2009,06,27,05,46,7.30
2009,06,27,05,47,7.30
2009,06,27,05,48,7.40
2009,06,27,05,49,7.40
2009,06,27,05,50,7.40
2009,06,27,05,51,7.40
2009,06,27,05,52,7.50
2009,06,27,05,53,7.50
2009,06,27,05,54,7.50
2009,06,27,05,55,7.60
2009,06,27,05,56,7.60
2009,06,27,05,57,7.60
2009,06,27,05,58,7.60
2009,06,27,05,59,7.60
2009,06,27,06,00,7.70
2009,06,27,06,01,7.70
2009,06,27,06,02,7.80
2009,06,27,06,03,7.80
2009,06,27,06,04,7.80
2009,06,27,06,05,7.80
2009,06,27,06,06,7.90
2009,06,27,06,07,7.90
2009,06,27,06,08,7.90
2009,06,27,06,09,7.90
2009,06,27,06,10,7.90
2009,06,27,06,11,8.00
2009,06,27,06,12,8.00
2009,06,27,06,13,8.00
2009,06,27,06,14,8.00
2009,06,27,06,15,8.10
2009,06,27,06,16,8.10
2009,06,27,06,17,8.20
2009,06,27,06,18,8.20
2009,06,27,06,19,8.20
2009,06,27,06,20,8.20
2009,06,27,06,21,8.30
2009,06,27,06,22,8.40
2009,06,27,06,23,8.50
2009,06,27,06,24,8.50
2009,06,27,06,25,8.60
2009,06,27,06,26,8.70
2009,06,27,06,27,8.80
2009,06,27,06,28,8.90
2009,06,27,06,29,9.00
2009,06,27,06,30,9.00
2009,06,27,06,31,9.10
2009,06,27,06,32,9.10
2009,06,27,06,33,9.10
2009,06,27,06,34,9.10
2009,06,27,06,35,9.20
2009,06,27,06,36,9.20
2009,06,27,06,37,9.20
2009,06,27,06,38,9.20
2009,06,27,06,39,9.20
2009,06,27,06,40,9.30
2009,06,27,06,41,9.30
2009,06,27,06,42,9.40
2009,06,27,06,43,9.50
2009,06,27,06,44,9.60
2009,06,27,06,45,9.60
2009,06,27,06,46,9.70
2009,06,27,06,47,9.70
2009,06,27,06,48,9.80
2009,06,27,06,49,9.90
2009,06,27,06,50,9.90
2009,06,27,06,51,9.90
2009,06,27,06,52,10.00
2009,06,27,06,53,10.10
2009,06,27,06,54,10.10
2009,06,27,06,55,10.10
2009,06,27,06,56,10.10
2009,06,27,06,57,10.10
2009,06,27,06,58,10.20
2009,06,27,06,59,10.20
2009,06,27,07,00,10.30
2009,06,27,07,01,10.30
2009,06,27,07,02,10.40
2009,06,27,07,03,10.50
2009,06,27,07,04,10.60
2009,06,27,07,05,10.60
2009,06,27,07,06,10.70
2009,06,27,07,07,10.80
2009,06,27,07,08,10.90
2009,06,27,07,09,11.00
2009,06,27,07,10,11.10
2009,06,27,07,11,11.10
2009,06,27,07,12,11.20
2009,06,27,07,13,11.20
2009,06,27,07,14,11.30
2009,06,27,07,15,11.30
2009,06,27,07,16,11.40
2009,06,27,07,17,11.40
2009,06,27,07,18,11.50
2009,06,27,07,19,11.60
2009,06,27,07,20,11.60
2009,06,27,07,21,11.70
2009,06,27,07,22,11.80
2009,06,27,07,23,11.80
2009,06,27,07,24,11.90
2009,06,27,07,25,12.00
2009,06,27,07,26,12.10
2009,06,27,07,27,12.20
2009,06,27,07,28,12.30
2009,06,27,07,29,12.30
2009,06,27,07,30,12.40
2009,06,27,07,31,12.40
2009,06,27,07,32,12.40
2009,06,27,07,33,12.50
2009,06,27,07,34,12.50
2009,06,27,07,35,12.50
2009,06,27,07,36,12.60
2009,06,27,07,37,12.60
2009,06,27,07,38,12.70
2009,06,27,07,39,12.70
2009,06,27,07,40,12.80
2009,06,27,07,41,12.90
2009,06,27,07,42,13.00
2009,06,27,07,43,13.10
2009,06,27,07,44,13.30
2009,06,27,07,45,13.40
2009,06,27,07,46,13.40
2009,06,27,07,47,13.40
2009,06,27,07,48,13.50
2009,06,27,07,49,13.50
2009,06,27,07,50,13.60
2009,06,27,07,51,13.60
2009,06,27,07,52,13.70
2009,06,27,07,53,13.70
2009,06,27,07,54,13.80
2009,06,27,07,55,13.90
2009,06,27,07,56,13.90
2009,06,27,07,57,14.10
2009,06,27,07,58,14.20
2009,06,27,07,59,14.20
2009,06,27,08,00,14.30
2009,06,27,08,01,14.30
2009,06,27,08,02,14.30
2009,06,27,08,03,14.30
2009,06,27,08,04,14.30
2009,06,27,08,05,14.20
2009,06,27,08,06,14.20
2009,06,27,08,07,14.20
2009,06,27,08,08,14.20
2009,06,27,08,09,14.20
2009,06,27,08,10,14.10
2009,06,27,08,11,14.10
2009,06,27,08,12,14.10
2009,06,27,08,13,14.10
2009,06,27,08,14,14.20
2009,06,27,08,15,14.20
2009,06,27,08,16,14.20
2009,06,27,08,17,14.20
2009,06,27,08,18,14.20
2009,06,27,08,19,14.20
2009,06,27,08,20,14.20
2009,06,27,08,21,14.30
2009,06,27,08,22,14.40
2009,06,27,08,23,14.50
2009,06,27,08,24,14.60
2009,06,27,08,25,14.70
2009,06,27,08,26,14.80
2009,06,27,08,27,14.90
2009,06,27,08,28,14.90
2009,06,27,08,29,14.90
2009,06,27,08,30,15.00
2009,06,27,08,31,15.10
2009,06,27,08,32,15.20
2009,06,27,08,33,15.30
2009,06,27,08,34,15.30
2009,06,27,08,35,15.30
2009,06,27,08,36,15.30
2009,06,27,08,37,15.30
2009,06,27,08,38,15.30
2009,06,27,08,39,15.30
2009,06,27,08,40,15.40
2009,06,27,08,41,15.50
2009,06,27,08,42,15.60
2009,06,27,08,43,15.70
2009,06,27,08,44,15.80
2009,06,27,08,45,15.80
2009,06,27,08,46,15.90
2009,06,27,08,47,16.00
2009,06,27,08,48,16.10
2009,06,27,08,49,16.00
2009,06,27,08,50,15.90
2009,06,27,08,51,15.80
2009,06,27,08,52,15.60
2009,06,27,08,53,15.60
2009,06,27,08,54,15.60
2009,06,27,08,55,15.60
2009,06,27,08,56,15.50
2009,06,27,08,57,15.50
2009,06,27,08,58,15.50
2009,06,27,08,59,15.40
2009,06,27,09,00,15.30
2009,06,27,09,01,15.30
2009,06,27,09,02,15.30
2009,06,27,09,03,15.40
2009,06,27,09,04,15.60
2009,06,27,09,05,15.70
2009,06,27,09,06,15.80
2009,06,27,09,07,15.80
2009,06,27,09,08,15.80
2009,06,27,09,09,15.80
2009,06,27,09,10,15.80
2009,06,27,09,11,15.80
2009,06,27,09,12,15.80
2009,06,27,09,13,15.70
2009,06,27,09,14,15.70
2009,06,27,09,15,15.70
2009,06,27,09,16,15.80
2009,06,27,09,17,15.90
2009,06,27,09,18,16.10
2009,06,27,09,19,16.30
2009,06,27,09,20,16.40
2009,06,27,09,21,16.50
2009,06,27,09,22,16.60
2009,06,27,09,23,16.70
2009,06,27,09,24,16.70
2009,06,27,09,25,16.60
2009,06,27,09,26,16.70
2009,06,27,09,27,16.70
2009,06,27,09,28,16.70
2009,06,27,09,29,16.70
2009,06,27,09,30,16.70
2009,06,27,09,31,16.60
2009,06,27,09,32,16.50
2009,06,27,09,33,16.60
2009,06,27,09,34,16.70
2009,06,27,09,35,16.70
2009,06,27,09,36,16.80
2009,06,27,09,37,16.90
2009,06,27,09,38,17.00
2009,06,27,09,39,17.00
2009,06,27,09,40,17.10
2009,06,27,09,41,17.20
2009,06,27,09,42,17.30
2009,06,27,09,43,17.50
2009,06,27,09,44,17.50
2009,06,27,09,45,17.50
2009,06,27,09,46,17.50
2009,06,27,09,47,17.40
2009,06,27,09,48,17.40
2009,06,27,09,49,17.40
2009,06,27,09,50,17.50
2009,06,27,09,51,17.60
2009,06,27,09,52,17.80
2009,06,27,09,53,17.90
2009,06,27,09,54,17.90
2009,06,27,09,55,17.90
2009,06,27,09,56,17.60
2009,06,27,09,57,17.40
2009,06,27,09,58,17.30
2009,06,27,09,59,17.30
2009,06,27,10,00,17.30
2009,06,27,10,01,17.20
2009,06,27,10,02,17.10
2009,06,27,10,03,17.10
2009,06,27,10,04,17.10
2009,06,27,10,05,17.20
2009,06,27,10,06,17.30
2009,06,27,10,07,17.30
2009,06,27,10,08,17.10
2009,06,27,10,09,17.00
2009,06,27,10,10,16.80
2009,06,27,10,11,16.70
2009,06,27,10,12,16.80
2009,06,27,10,13,16.80
2009,06,27,10,14,16.90
2009,06,27,10,15,17.00
2009,06,27,10,16,17.00
2009,06,27,10,17,17.10
2009,06,27,10,18,17.10
2009,06,27,10,19,17.00
2009,06,27,10,20,17.00
2009,06,27,10,21,17.00
2009,06,27,10,22,17.00
2009,06,27,10,23,17.00
2009,06,27,10,24,16.90
2009,06,27,10,25,16.80
2009,06,27,10,26,16.60
2009,06,27,10,27,16.60
2009,06,27,10,28,16.60
2009,06,27,10,29,16.40
2009,06,27,10,30,16.40
2009,06,27,10,31,16.30
2009,06,27,10,32,16.00
2009,06,27,10,33,15.80
2009,06,27,10,34,15.70
2009,06,27,10,35,15.70
2009,06,27,10,36,15.80
2009,06,27,10,37,16.00
2009,06,27,10,38,16.10
2009,06,27,10,39,16.30
2009,06,27,10,40,16.30
2009,06,27,10,41,16.30
2009,06,27,10,42,16.40
2009,06,27,10,43,16.20
2009,06,27,10,44,16.10
2009,06,27,10,45,16.10
2009,06,27,10,46,16.10
2009,06,27,10,47,16.00
2009,06,27,10,48,15.90
2009,06,27,10,49,15.90
2009,06,27,10,50,15.90
2009,06,27,10,51,15.90
2009,06,27,10,52,15.90
2009,06,27,10,53,16.10
2009,06,27,10,54,16.20
2009,06,27,10,55,16.30
2009,06,27,10,56,16.20
2009,06,27,10,57,16.10
2009,06,27,10,58,16.20
2009,06,27,10,59,16.40
2009,06,27,11,00,16.70
2009,06,27,11,01,16.90
2009,06,27,11,02,16.90
2009,06,27,11,03,16.90
2009,06,27,11,04,17.00
2009,06,27,11,05,17.30
2009,06,27,11,06,17.40
2009,06,27,11,07,17.50
2009,06,27,11,08,17.60
2009,06,27,11,09,17.70
2009,06,27,11,10,17.70
2009,06,27,11,11,17.80
2009,06,27,11,12,17.90
2009,06,27,11,13,18.00
2009,06,27,11,14,18.00
2009,06,27,11,15,17.80
2009,06,27,11,16,17.50
2009,06,27,11,17,17.20
2009,06,27,11,18,17.00
2009,06,27,11,19,17.00
2009,06,27,11,20,17.00
2009,06,27,11,21,17.20
2009,06,27,11,22,17.30
2009,06,27,11,23,17.50
2009,06,27,11,24,17.60
2009,06,27,11,25,17.60
2009,06,27,11,26,17.70
2009,06,27,11,27,17.60
2009,06,27,11,28,17.70
2009,06,27,11,29,17.90
2009,06,27,11,30,18.00
2009,06,27,11,31,18.10
2009,06,27,11,32,18.20
2009,06,27,11,33,18.20
2009,06,27,11,34,18.40
2009,06,27,11,35,18.50
2009,06,27,11,36,18.70
2009,06,27,11,37,18.90
2009,06,27,11,38,18.90
2009,06,27,11,39,18.90
2009,06,27,11,40,18.90
2009,06,27,11,41,19.10
2009,06,27,11,42,19.10
2009,06,27,11,43,19.20
2009,06,27,11,44,19.30
2009,06,27,11,45,19.50
2009,06,27,11,46,19.70
2009,06,27,11,47,19.90
2009,06,27,11,48,20.00
2009,06,27,11,49,20.10
2009,06,27,11,50,19.90
2009,06,27,11,51,19.90
2009,06,27,11,52,19.90
2009,06,27,11,53,20.00
2009,06,27,11,54,20.10
2009,06,27,11,55,20.20
2009,06,27,11,56,20.20
2009,06,27,11,57,20.20
2009,06,27,11,58,20.20
2009,06,27,11,59,20.10
2009,06,27,12,00,20.10
2009,06,27,12,01,20.10
2009,06,27,12,02,20.10
2009,06,27,12,03,20.20
2009,06,27,12,04,20.20
2009,06,27,12,05,20.20
2009,06,27,12,06,20.20
2009,06,27,12,07,20.10
2009,06,27,12,08,20.00
2009,06,27,12,09,20.00
2009,06,27,12,10,19.90
2009,06,27,12,11,19.90
2009,06,27,12,12,19.90
2009,06,27,12,13,19.80
2009,06,27,12,14,19.90
2009,06,27,12,15,19.90
2009,06,27,12,16,19.90
2009,06,27,12,17,19.90
2009,06,27,12,18,19.90
2009,06,27,12,19,19.90
2009,06,27,12,20,19.90
2009,06,27,12,21,19.80
2009,06,27,12,22,19.90
2009,06,27,12,23,19.80
2009,06,27,12,24,19.70
2009,06,27,12,25,19.70
2009,06,27,12,26,19.70
2009,06,27,12,27,19.70
2009,06,27,12,28,19.70
2009,06,27,12,29,19.90
2009,06,27,12,30,19.80
2009,06,27,12,31,19.60
2009,06,27,12,32,19.70
2009,06,27,12,33,19.70
2009,06,27,12,34,19.80
2009,06,27,12,35,19.90
2009,06,27,12,36,19.90
2009,06,27,12,37,19.90
2009,06,27,12,38,19.70
2009,06,27,12,39,19.60
2009,06,27,12,40,19.60
2009,06,27,12,41,19.70
2009,06,27,12,42,19.60
2009,06,27,12,43,19.70
2009,06,27,12,44,19.70
2009,06,27,12,45,19.60
2009,06,27,12,46,19.60
2009,06,27,12,47,19.50
2009,06,27,12,48,19.60
2009,06,27,12,49,19.70
2009,06,27,12,50,19.60
2009,06,27,12,51,19.60
2009,06,27,12,52,19.60
2009,06,27,12,53,19.70
2009,06,27,12,54,19.90
2009,06,27,12,55,19.80
2009,06,27,12,56,19.90
2009,06,27,12,57,19.90
2009,06,27,12,58,19.80
2009,06,27,12,59,19.70
2009,06,27,13,00,19.60
2009,06,27,13,01,19.60
2009,06,27,13,02,19.60
2009,06,27,13,03,19.50
2009,06,27,13,04,19.50
2009,06,27,13,05,19.60
2009,06,27,13,06,19.70
2009,06,27,13,07,19.70
2009,06,27,13,08,19.60
2009,06,27,13,09,19.50
2009,06,27,13,10,19.40
2009,06,27,13,11,19.50
2009,06,27,13,12,19.70
2009,06,27,13,13,19.90
2009,06,27,13,14,19.90
2009,06,27,13,15,19.90
2009,06,27,13,16,19.90
2009,06,27,13,17,20.10
2009,06,27,13,18,20.20
2009,06,27,13,19,20.30
2009,06,27,13,20,20.40
2009,06,27,13,21,20.50
2009,06,27,13,22,20.50
2009,06,27,13,23,20.50
2009,06,27,13,24,20.50
2009,06,27,13,25,20.50
2009,06,27,13,26,20.50
2009,06,27,13,27,20.60
2009,06,27,13,28,20.70
2009,06,27,13,29,20.70
2009,06,27,13,30,20.80
2009,06,27,13,31,20.90
2009,06,27,13,32,20.90
2009,06,27,13,33,21.00
2009,06,27,13,34,21.20
2009,06,27,13,35,21.20
2009,06,27,13,36,21.20
2009,06,27,13,37,21.10
2009,06,27,13,38,21.00
2009,06,27,13,39,20.90
2009,06,27,13,40,20.70
2009,06,27,13,41,20.70
2009,06,27,13,42,20.80
2009,06,27,13,43,20.80
2009,06,27,13,44,20.80
2009,06,27,13,45,20.80
2009,06,27,13,46,20.90
2009,06,27,13,47,21.10
2009,06,27,13,48,21.30
2009,06,27,13,49,21.30
2009,06,27,13,50,21.30
2009,06,27,13,51,21.20
2009,06,27,13,52,21.20
2009,06,27,13,53,21.10
2009,06,27,13,54,21.00
2009,06,27,13,55,21.00
2009,06,27,13,56,21.00
2009,06,27,13,57,21.00
2009,06,27,13,58,21.00
2009,06,27,13,59,21.00
2009,06,27,14,00,21.00
2009,06,27,14,01,20.90
2009,06,27,14,02,20.80
2009,06,27,14,03,20.80
2009,06,27,14,04,20.80
2009,06,27,14,05,20.70
2009,06,27,14,06,20.60
2009,06,27,14,07,20.70
2009,06,27,14,08,20.80
2009,06,27,14,09,20.90
2009,06,27,14,10,21.00
2009,06,27,14,11,21.20
2009,06,27,14,12,21.30
2009,06,27,14,13,21.30
2009,06,27,14,14,21.30
2009,06,27,14,15,21.20
2009,06,27,14,16,21.10
2009,06,27,14,17,21.10
2009,06,27,14,18,21.00
2009,06,27,14,19,20.90
2009,06,27,14,20,21.00
2009,06,27,14,21,21.00
2009,06,27,14,22,21.10
2009,06,27,14,23,21.10
2009,06,27,14,24,21.20
2009,06,27,14,25,21.30
2009,06,27,14,26,21.30
2009,06,27,14,27,21.30
2009,06,27,14,28,21.30
2009,06,27,14,29,21.30
2009,06,27,14,30,21.30
2009,06,27,14,31,21.30
2009,06,27,14,32,21.40
2009,06,27,14,33,21.60
2009,06,27,14,34,21.60
2009,06,27,14,35,21.60
2009,06,27,14,36,21.40
2009,06,27,14,37,21.30
2009,06,27,14,38,21.30
2009,06,27,14,39,21.30
2009,06,27,14,40,21.30
2009,06,27,14,41,21.20
2009,06,27,14,42,21.00
2009,06,27,14,43,20.90
2009,06,27,14,44,20.90
2009,06,27,14,45,20.80
2009,06,27,14,46,20.80
2009,06,27,14,47,20.90
2009,06,27,14,48,20.90
2009,06,27,14,49,21.00
2009,06,27,14,50,21.10
2009,06,27,14,51,21.20
2009,06,27,14,52,21.20
2009,06,27,14,53,21.20
2009,06,27,14,54,21.10
2009,06,27,14,55,21.10
2009,06,27,14,56,21.00
2009,06,27,14,57,20.90
2009,06,27,14,58,20.80
2009,06,27,14,59,21.00
2009,06,27,15,00,21.00
2009,06,27,15,01,21.10
2009,06,27,15,02,21.10
2009,06,27,15,03,21.00
2009,06,27,15,04,20.80
2009,06,27,15,05,20.60
2009,06,27,15,06,20.50
2009,06,27,15,07,20.50
2009,06,27,15,08,20.60
2009,06,27,15,09,20.70
2009,06,27,15,10,20.80
2009,06,27,15,11,20.80
2009,06,27,15,12,20.80
2009,06,27,15,13,20.90
2009,06,27,15,14,21.00
2009,06,27,15,15,21.20
2009,06,27,15,16,21.20
2009,06,27,15,17,21.10
2009,06,27,15,18,21.10
2009,06,27,15,19,21.10
2009,06,27,15,20,21.00
2009,06,27,15,21,21.00
2009,06,27,15,22,21.10
2009,06,27,15,23,21.10
2009,06,27,15,24,21.00
2009,06,27,15,25,20.90
2009,06,27,15,26,20.80
2009,06,27,15,27,20.80
2009,06,27,15,28,21.00
2009,06,27,15,29,21.10
2009,06,27,15,30,21.10
2009,06,27,15,31,21.10
2009,06,27,15,32,21.20
2009,06,27,15,33,21.30
2009,06,27,15,34,21.40
2009,06,27,15,35,21.40
2009,06,27,15,36,21.40
2009,06,27,15,37,21.40
2009,06,27,15,38,21.30
2009,06,27,15,39,21.30
2009,06,27,15,40,21.30
2009,06,27,15,41,21.40
2009,06,27,15,42,21.60
2009,06,27,15,43,21.70
2009,06,27,15,44,21.70
2009,06,27,15,45,21.80
2009,06,27,15,46,21.80
2009,06,27,15,47,21.70
2009,06,27,15,48,21.70
2009,06,27,15,49,21.60
2009,06,27,15,50,21.40
2009,06,27,15,51,21.50
2009,06,27,15,52,21.60
2009,06,27,15,53,21.70
2009,06,27,15,54,21.80
2009,06,27,15,55,21.70
2009,06,27,15,56,21.70
2009,06,27,15,57,21.80
2009,06,27,15,58,21.90
2009,06,27,15,59,21.90
2009,06,27,16,00,21.90
2009,06,27,16,01,21.90
2009,06,27,16,02,21.90
2009,06,27,16,03,21.80
2009,06,27,16,04,21.70
2009,06,27,16,05,21.70
2009,06,27,16,06,21.80
2009,06,27,16,07,21.90
2009,06,27,16,08,21.80
2009,06,27,16,09,21.70
2009,06,27,16,10,21.70
2009,06,27,16,11,21.70
2009,06,27,16,12,21.70
2009,06,27,16,13,21.70
2009,06,27,16,14,21.90
2009,06,27,16,15,22.00
2009,06,27,16,16,22.20
2009,06,27,16,17,22.10
2009,06,27,16,18,22.10
2009,06,27,16,19,22.10
2009,06,27,16,20,22.10
2009,06,27,16,21,22.00
2009,06,27,16,22,22.00
2009,06,27,16,23,21.90
2009,06,27,16,24,21.90
2009,06,27,16,25,21.90
2009,06,27,16,26,21.90
2009,06,27,16,27,21.70
2009,06,27,16,28,21.60
2009,06,27,16,29,21.60
2009,06,27,16,30,21.60
2009,06,27,16,31,21.60
2009,06,27,16,32,21.60
2009,06,27,16,33,21.60
2009,06,27,16,34,21.60
2009,06,27,16,35,21.80
2009,06,27,16,36,21.80
2009,06,27,16,37,21.80
2009,06,27,16,38,21.80
2009,06,27,16,39,21.70
2009,06,27,16,40,21.70
2009,06,27,16,41,21.70
2009,06,27,16,42,21.80
2009,06,27,16,43,21.80
2009,06,27,16,44,21.80
2009,06,27,16,45,21.90
2009,06,27,16,46,22.00
2009,06,27,16,47,22.00
2009,06,27,16,48,22.00
2009,06,27,16,49,22.00
2009,06,27,16,50,22.00
2009,06,27,16,51,21.90
2009,06,27,16,52,21.80
2009,06,27,16,53,21.80
2009,06,27,16,54,21.80
2009,06,27,16,55,21.70
2009,06,27,16,56,21.70
2009,06,27,16,57,21.70
2009,06,27,16,58,21.60
2009,06,27,16,59,21.60
2009,06,27,17,00,21.60
2009,06,27,17,01,21.60
2009,06,27,17,02,21.60
2009,06,27,17,03,21.60
2009,06,27,17,04,21.70
2009,06,27,17,05,21.70
2009,06,27,17,06,21.70
2009,06,27,17,07,21.70
2009,06,27,17,08,21.70
2009,06,27,17,09,21.70
2009,06,27,17,10,21.70
2009,06,27,17,11,21.60
2009,06,27,17,12,21.70
2009,06,27,17,13,21.70
2009,06,27,17,14,21.70
2009,06,27,17,15,21.60
2009,06,27,17,16,21.50
2009,06,27,17,17,21.40
2009,06,27,17,18,21.40
2009,06,27,17,19,21.30
2009,06,27,17,20,21.30
2009,06,27,17,21,21.30
2009,06,27,17,22,21.30
2009,06,27,17,23,21.40
2009,06,27,17,24,21.40
2009,06,27,17,25,21.50
2009,06,27,17,26,21.60
2009,06,27,17,27,21.60
2009,06,27,17,28,21.70
2009,06,27,17,29,21.70
2009,06,27,17,30,21.80
2009,06,27,17,31,21.80